Lid_Strength_Index
4 4 6 7 12 15 17 14 11 11 11 11 10 10 9 6 8 10 3 2 1 1 -0 -0 -0 -1 -1 -1 -1 -1 -1 -1 -1 -1 -1 -1 -1 -1 -1 -1 -2 -2 -2 -2 -2 -2 -2 -2 -2
2 5 8 10 14 18 16 13 12 11 10 10 9 9 8 7 4 4 3 1 1 1 0 0 -0 -0 -1 -1 -1 -1 -1 -1 -1 -1 -1 -1 -1 -1 -1 -1 -2 -2 -2 -2 -2 -2 -2 -2 -2
1 4 10 13 16 16 16 12 11 9 9 10 10 8 6 7 4 3 2 1 1 1 0 -0 -1 -0 -1 -1 -1 -1 -1 -1 -1 -1 -1 -1 -1 -1 -1 -1 -2 -2 -2 -2 -2 -2 -2 -2 -1
5 6 9 13 14 13 12 11 10 9 9 9 10 10 5 3 3 2 1 1 1 1 0 -0 -0 -0 -1 -1 -1 -1 -1 -1 -1 -1 -1 -1 -1 -1 -1 -1 -2 -2 -2 -2 -2 -2 -2 -2 -1
4 8 13 15 14 12 10 10 9 10 10 10 10 10 6 4 2 2 2 1 2 1 0 -0 -0 -0 -1 -1 -1 -1 -1 -1 -1 -1 -1 -1 -1 -1 -1 -1 -2 -2 -2 -2 -2 -2 -2 -2 -1
8 10 15 14 13 10 9 8 9 10 9 9 10 10 6 3 3 2 2 2 1 1 0 0 -1 -1 -0 -1 -0 -0 -1 -1 -1 -1 -1 -1 -1 -1 -1 -1 -2 -2 -2 -2 -2 -2 -2 -2 -2
8 12 14 14 11 10 9 7 8 8 9 10 9 10 6 4 2 2 3 3 2 1 1 0 0 -0 -1 -1 -0 -0 -0 -0 -1 -0 -1 -1 -1 -1 -1 -1 -1 -2 -2 -2 -2 -2 -2 -2 -1
7 9 12 12 12 11 7 7 7 7 7 6 7 10 9 5 2 2 2 3 2 2 1 1 0 0 0 0 -1 -0 -0 -0 -0 -1 -1 -0 -1 -1 -1 -1 -1 -2 -2 -2 -2 -1 -1 -2 -1
7 11 13 11 11 9 6 7 5 5 6 6 7 7 6 3 2 2 3 3 2 2 1 1 1 0 0 0 -0 -0 -1 -1 -0 -0 -1 -0 -0 -0 -0 -1 -1 -1 -2 -2 -2 -1 -1 -1 -1
11 13 11 8 7 8 7 7 6 6 7 7 7 6 6 4 4 3 4 4 3 3 2 1 1 1 0 -0 0 0 0 0 0 -0 0 0 0 1 -0 -0 -1 -1 -1 -1 -1 -1 -1 -1 0
12 13 10 9 8 7 8 8 6 7 8 8 8 7 6 7 5 4 4 4 3 2 2 1 1 0 0 1 0 0 0 0 0 0 0 0 0 0 0 1 0 1 -1 0 -0 0 0 0 0
14 12 11 10 9 9 9 8 8 7 7 6 6 6 7 7 8 7 6 3 3 2 2 1 1 1 1 0 0 0 0 0 0 0 0 0 0 0 0 0 0 0 1 0 0 0 0 0 0
14 13 12 11 11 10 9 9 9 8 6 5 5 5 6 7 7 6 5 4 2 3 2 1 1 1 1 2 1 0 1 0 0 0 0 0 0 1 0 0 0 0 1 0 0 1 0 0 0
13 13 12 12 12 11 11 11 10 10 8 8 7 7 5 6 6 5 4 3 3 2 2 1 1 1 1 2 2 1 1 1 0 0 0 0 0 0 0 1 0 1 1 1 1 2 1 1 0
12 14 13 12 11 11 9 12 12 9 8 8 8 7 6 5 5 5 3 3 3 2 2 2 1 1 1 1 1 1 1 1 1 2 1 0 0 1 1 1 2 3 2 3 3 3 3 3 1
14 15 17 13 11 11 10 14 11 10 10 9 9 8 8 7 5 5 6 3 3 3 3 2 1 1 1 1 1 1 0 0 1 1 1 -0 1 1 2 2 3 4 3 4 4 4 4 4 2
15 18 17 14 11 11 12 14 12 10 11 11 11 10 9 8 7 5 5 4 2 3 3 3 2 1 1 1 1 1 1 1 1 0 1 1 1 2 2 3 3 4 4 4 4 5 4 4 4
17 17 15 15 12 12 13 13 12 10 10 10 11 11 10 10 9 7 5 3 2 2 3 3 4 5 3 2 1 1 1 1 1 1 1 1 1 1 2 3 4 4 4 4 5 5 4 5 4
13 14 15 13 12 13 14 13 11 11 11 11 11 11 11 10 9 8 7 5 4 3 3 4 4 5 5 2 2 2 2 2 1 1 1 1 1 1 3 3 4 4 4 4 4 5 5 5 4
13 15 15 13 10 12 13 13 11 11 11 11 11 10 10 10 9 9 8 7 6 5 3 3 2 2 3 2 1 2 2 1 1 1 2 2 2 2 2 3 3 3 3 4 4 5 6 4 4
13 14 14 14 12 12 13 14 13 11 11 10 10 10 9 9 9 8 8 8 7 6 5 2 2 2 1 1 2 4 4 4 3 4 3 2 2 2 1 2 2 2 2 3 4 4 4 4 3
15 11 11 12 14 18 13 19 15 13 12 11 11 10 10 10 9 9 8 8 8 8 7 4 2 2 1 1 2 3 3 3 5 4 2 3 3 2 1 1 2 2 2 3 4 4 3 3 4
13 10 11 12 14 17 15 18 17 13 13 12 11 10 9 8 8 7 7 6 6 7 8 6 3 2 2 2 2 2 3 3 5 6 4 4 3 1 1 1 1 1 2 3 4 4 3 3 3
9 12 13 14 15 20 16 16 18 16 14 12 10 8 8 8 8 7 6 5 5 5 6 6 4 2 2 2 2 2 2 4 5 4 4 2 2 1 1 1 1 2 3 3 3 3 3 3 3
12 15 19 20 20 19 14 16 16 12 10 10 9 8 8 7 8 8 7 6 5 5 5 5 4 3 2 2 2 3 3 3 4 3 3 3 3 3 2 2 3 3 3 3 3 3 3 3 3
13 14 18 21 20 18 14 18 15 10 8 7 7 7 7 8 9 8 7 7 6 5 5 5 6 3 3 3 2 2 3 4 3 3 2 2 2 2 2 2 3 3 2 3 3 2 2 3 3
13 14 12 16 16 19 16 13 11 8 9 8 7 7 8 8 8 8 7 7 6 5 5 5 6 5 2 3 3 4 3 3 2 2 2 2 2 2 2 3 3 3 2 2 2 2 3 3 3
11 11 17 16 21 22 17 16 15 11 10 9 8 8 7 7 7 7 7 6 6 5 5 3 4 9 3 2 3 3 2 2 2 2 2 2 3 2 3 3 3 3 2 2 2 3 3 3 4
13 14 14 15 16 21 21 17 11 11 10 9 8 7 7 7 7 6 6 5 5 6 5 4 5 8 6 4 4 3 2 2 2 2 2 2 2 3 3 3 3 3 2 2 3 4 4 4 4
11 13 13 19 19 16 18 17 8 8 9 8 8 6 6 6 6 6 6 6 6 7 6 6 7 6 8 3 2 2 2 2 2 2 2 2 3 3 3 3 2 2 2 3 3 4 3 4 4